DW8673 Jerrabomberra AU current weather conditions

sailwx.info

Wind from 317 at 1 knots gusting 6

Air temperature 21.7° C
Dewpoint -1.0° C

Last reported at 2017-Sep-21 06:08 UTC.
Time now 2017-Sep-21 07:05 UTC

Location: S 35°23' E 149°12'.
View on Google Maps.

See reports from other nearby stations

  
Tides and Currents Weather Stations Pressure Air Temp Water Temp Dewpoint Dewpoint Depression Visibility Wind Speed Wind Dir Waves Ship Positions
date/time (UTC)wind fromknots sea level pressurealtimeterstation pressurevisibilityair tempwater tempwave heightnotes
2017-Sep-21 06:08 317 1 gusting 6 21.7
2017-Sep-21 06:03 026 3 gusting 6 21.7
2017-Sep-21 05:48 355 2 gusting 6 22.8
2017-Sep-21 05:43 335 4 gusting 6 22.8
2017-Sep-21 05:38 320 1 gusting 4 22.8
2017-Sep-21 05:33 268 1 gusting 6 22.8
2017-Sep-21 05:18 277 2 gusting 5 23.3
2017-Sep-21 05:13 340 2 gusting 6 23.9
2017-Sep-21 05:08 012 2 gusting 5 23.9
2017-Sep-21 05:03 290 4 gusting 7 23.9
2017-Sep-21 04:48 305 2 gusting 6 23.9
2017-Sep-21 04:43 328 4 gusting 6 24.4
2017-Sep-21 04:38 002 2 gusting 8 24.4
2017-Sep-21 04:33 300 2 gusting 7 23.9
2017-Sep-21 04:18 319 4 gusting 6 24.4
2017-Sep-21 04:13 259 1 gusting 6 24.4
2017-Sep-21 04:08 233 2 gusting 5 24.4
2017-Sep-21 04:03 293 4 gusting 7 24.4
2017-Sep-21 03:48 293 4 gusting 6 24.4
2017-Sep-21 03:43 320 2 gusting 6 24.4
2017-Sep-21 03:38 282 1 gusting 5 25.0
2017-Sep-21 03:33 252 2 gusting 6 25.0
2017-Sep-21 03:18 060 2 gusting 6 24.4
2017-Sep-21 03:13 268 2 gusting 6 24.4
2017-Sep-21 03:08 302 2 gusting 5 24.4
2017-Sep-21 03:03 295 1 gusting 6 24.4
2017-Sep-21 02:48 294 2 gusting 5 24.4
2017-Sep-21 02:43 304 2 gusting 6 23.9
2017-Sep-21 02:38 311 4 gusting 6 23.9
2017-Sep-21 02:33 289 2 gusting 7 23.3
2017-Sep-21 02:19 271 2 gusting 5 23.3
2017-Sep-21 02:13 280 2 gusting 5 23.3
2017-Sep-21 02:08 344 1 gusting 5 23.3
2017-Sep-21 02:03 299 2 gusting 6 22.8
2017-Sep-21 01:48 257 2 gusting 6 22.8
2017-Sep-21 01:43 001 2 gusting 5 22.8
2017-Sep-21 01:38 238 2 gusting 4 22.2
2017-Sep-21 01:33 307 1 gusting 5 22.2
2017-Sep-21 01:18 243 0 gusting 1 22.2
2017-Sep-21 01:13 352 2 gusting 5 21.7
2017-Sep-21 01:08 276 1 gusting 4 21.7
2017-Sep-21 01:03 261 2 gusting 6 21.7
2017-Sep-21 00:48 341 0 gusting 4 21.1
2017-Sep-21 00:43 047 0 gusting 4 20.6
2017-Sep-21 00:38 139 1 gusting 4 20.6
2017-Sep-21 00:33 106 1 gusting 5 20.0
2017-Sep-21 00:18 256 1 gusting 2 18.9
2017-Sep-21 00:13 304 1 gusting 4 18.9
2017-Sep-21 00:08 283 1 gusting 4 18.3
2017-Sep-21 00:03 281 1 gusting 4 18.3
2017-Sep-20 23:48 347 1 gusting 2 17.2
2017-Sep-20 23:43 084 0 gusting 1 16.7
2017-Sep-20 23:38 041 1 gusting 4 16.7
2017-Sep-20 23:33 035 1 gusting 2 16.1
2017-Sep-20 23:18 056 1 gusting 2 15.0
2017-Sep-20 23:13 287 0 gusting 2 14.4
2017-Sep-20 23:08 126 0 gusting 1 13.9
2017-Sep-20 23:03 129 1 gusting 4 13.3
2017-Sep-20 22:48 083 1 gusting 2 11.1
2017-Sep-20 22:43 234 1 gusting 2 10.0
2017-Sep-20 22:38 098 1 gusting 2 9.4
2017-Sep-20 22:33 093 1 gusting 17 9.4
2017-Sep-20 22:18 112 1 gusting 1 8.3
2017-Sep-20 22:13 204 7.8
2017-Sep-20 22:08 248 0 gusting 0 7.2
2017-Sep-20 22:03 202 6.7
2017-Sep-20 21:48 317 5.6
2017-Sep-20 21:43 343 5.6
2017-Sep-20 21:38 045 5.0
2017-Sep-20 21:33 045 5.0
2017-Sep-20 21:18 045 3.3
2017-Sep-20 21:13 045 3.3
2017-Sep-20 21:08 112 3.3
2017-Sep-20 21:03 135 2.8
2017-Sep-20 20:48 315 2.8
2017-Sep-20 20:43 315 2.2
2017-Sep-20 20:38 340 2.2
2017-Sep-20 20:33 045 2.2
2017-Sep-20 20:18 045 2.2
2017-Sep-20 20:13 022 2.2
2017-Sep-20 20:08 2.2
2017-Sep-20 20:03 2.2
2017-Sep-20 19:48 283 2.2
2017-Sep-20 19:43 2.2
2017-Sep-20 19:38 2.2
2017-Sep-20 19:33 2.2
2017-Sep-20 19:18 2.2
2017-Sep-20 19:13 2.2
2017-Sep-20 19:08 045 2.2
2017-Sep-20 19:03 045 2.2
2017-Sep-20 18:48 045 2.8
2017-Sep-20 18:43 045 2.8
2017-Sep-20 18:38 045 2.8
2017-Sep-20 18:33 045 2.8
2017-Sep-20 18:18 045 2.8
2017-Sep-20 18:13 045 2.8
2017-Sep-20 18:08 040 2.8
2017-Sep-20 18:03 022 2.8
2017-Sep-20 17:48 037 3.3
2017-Sep-20 17:43 045 3.3
2017-Sep-20 17:38 3.3
2017-Sep-20 17:33 3.3
2017-Sep-20 17:18 3.3
2017-Sep-20 17:13 3.3
2017-Sep-20 17:08 045 3.3
2017-Sep-20 17:03 045 3.3
2017-Sep-20 16:48 338 3.3
2017-Sep-20 16:43 3.3
2017-Sep-20 16:38 3.3
2017-Sep-20 16:33 3.3
2017-Sep-20 16:18 068 3.9
2017-Sep-20 16:13 068 3.9
2017-Sep-20 16:08 045 3.9
2017-Sep-20 16:03 045 3.9
2017-Sep-20 15:48 090 3.9
2017-Sep-20 15:43 338 4.4
2017-Sep-20 15:38 4.4
2017-Sep-20 15:33 4.4
2017-Sep-20 15:18 090 4.4
2017-Sep-20 15:13 090 4.4
2017-Sep-20 15:08 086 4.4
2017-Sep-20 15:03 292 5.0
2017-Sep-20 14:48 5.0
2017-Sep-20 14:43 5.0
2017-Sep-20 14:38 326 5.0
2017-Sep-20 14:33 135 5.6
2017-Sep-20 14:18 045 0 gusting 0 6.1
2017-Sep-20 14:13 045 6.1
2017-Sep-20 14:08 135 6.7
2017-Sep-20 14:03 080 0 gusting 1 6.7
2017-Sep-20 13:48 041 1 gusting 2 7.2
2017-Sep-20 13:43 068 1 gusting 2 7.2
2017-Sep-20 13:38 070 1 gusting 2 7.2
2017-Sep-20 13:33 051 1 gusting 1 7.2
2017-Sep-20 13:13 056 0 gusting 1 6.7
2017-Sep-20 13:08 045 6.7
2017-Sep-20 13:03 040 6.7
2017-Sep-20 12:48 109 7.2
2017-Sep-20 12:43 282 0 gusting 1 7.2
2017-Sep-20 12:38 315 7.2
2017-Sep-20 12:33 087 7.2
2017-Sep-20 12:18 050 0 gusting 1 7.2
2017-Sep-20 12:13 051 7.2
2017-Sep-20 12:08 040 7.2
2017-Sep-20 12:03 066 0 gusting 1 7.8
2017-Sep-20 11:48 045 0 gusting 1 7.8
2017-Sep-20 11:43 048 0 gusting 1 7.8
2017-Sep-20 11:38 068 0 gusting 0 7.8
2017-Sep-20 11:33 039 0 gusting 1 7.8
2017-Sep-20 11:18 074 0 gusting 1 7.8
2017-Sep-20 11:13 104 0 gusting 1 7.8
2017-Sep-20 11:08 065 0 gusting 1 7.8
2017-Sep-20 11:03 083 8.3
2017-Sep-20 10:48 004 8.3
2017-Sep-20 10:43 073 0 gusting 1 8.3
2017-Sep-20 10:38 080 0 gusting 1 8.9
2017-Sep-20 10:33 089 0 gusting 2 8.9
2017-Sep-20 10:18 049 0 gusting 1 8.9
2017-Sep-20 10:13 064 0 gusting 1 9.4
2017-Sep-20 10:08 076 0 gusting 1 9.4
2017-Sep-20 10:03 068 0 gusting 2 9.4
2017-Sep-20 09:48 076 1 gusting 4 9.4
2017-Sep-20 09:43 051 0 gusting 1 9.4
2017-Sep-20 09:38 092 0 gusting 1 10.0
2017-Sep-20 09:33 072 0 gusting 1 10.0
2017-Sep-20 09:18 042 10.6
2017-Sep-20 09:13 042 0 gusting 1 10.6
2017-Sep-20 09:08 071 1 gusting 1 11.1
2017-Sep-20 09:03 066 0 gusting 2 11.1
2017-Sep-20 08:48 185 1 gusting 2 11.7
2017-Sep-20 08:43 069 1 gusting 2 11.7
2017-Sep-20 08:38 008 1 gusting 4 12.2
2017-Sep-20 08:33 116 0 gusting 5 12.2
2017-Sep-20 08:18 258 0 gusting 2 12.8
2017-Sep-20 08:13 006 0 gusting 6 12.8
2017-Sep-20 08:08 081 1 gusting 2 12.8
2017-Sep-20 08:03 267 1 gusting 4 13.3
2017-Sep-20 07:48 345 2 gusting 5 13.9
2017-Sep-20 07:43 317 2 gusting 5 14.4
2017-Sep-20 07:38 341 2 gusting 5 14.4
2017-Sep-20 07:33 332 1 gusting 5 14.4
2017-Sep-20 07:18 298 2 gusting 5 15.6
2017-Sep-20 07:13 280 2 gusting 5 15.6
2017-Sep-20 07:08 278 2 gusting 5 16.1
2017-Sep-20 07:03 279 1 gusting 5 16.1
2017-Sep-20 06:48 282 1 gusting 4 16.7
2017-Sep-20 06:43 013 2 gusting 5 16.7
2017-Sep-20 06:38 287 2 gusting 5 16.7
2017-Sep-20 06:33 344 2 gusting 5 17.2
2017-Sep-20 06:18 276 2 gusting 6 17.8
2017-Sep-20 06:13 292 1 gusting 5 17.8
2017-Sep-20 06:08 277 2 gusting 4 17.8
2017-Sep-20 06:03 316 2 gusting 6 18.3
2017-Sep-20 05:48 330 1 gusting 5 18.9
2017-Sep-20 05:43 274 1 gusting 4 19.4
2017-Sep-20 05:38 252 2 gusting 5 19.4
2017-Sep-20 05:33 245 2 gusting 5 19.4
2017-Sep-20 05:18 259 1 gusting 5 20.0
2017-Sep-20 05:13 294 2 gusting 4 20.0
2017-Sep-20 05:08 348 2 gusting 5 20.0
2017-Sep-20 05:03 301 2 gusting 5 20.6
2017-Sep-20 04:48 345 3 gusting 5 20.6
2017-Sep-20 04:43 254 1 gusting 4 20.6
2017-Sep-20 04:38 009 2 gusting 4 20.6
2017-Sep-20 04:33 324 2 gusting 6 20.6
2017-Sep-20 04:18 272 1 gusting 5 20.6
2017-Sep-20 04:13 279 2 gusting 5 20.6
2017-Sep-20 04:08 284 2 gusting 5 20.6
2017-Sep-20 04:03 328 1 gusting 5 20.6
2017-Sep-20 03:48 249 1 gusting 5 20.6
2017-Sep-20 03:43 313 1 gusting 5 20.6
2017-Sep-20 03:38 299 1 gusting 4 20.6
2017-Sep-20 03:33 289 2 gusting 6 20.6
2017-Sep-20 03:18 267 2 gusting 2 20.6
2017-Sep-20 03:13 248 1 gusting 2 20.6
2017-Sep-20 03:08 243 1 gusting 4 20.6
2017-Sep-20 03:03 263 2 gusting 6 20.6
2017-Sep-20 02:48 327 3 gusting 5 20.0
2017-Sep-20 02:43 250 1 gusting 4 20.0
2017-Sep-20 02:38 285 2 gusting 5 20.0
2017-Sep-20 02:33 247 1 gusting 5 20.0
2017-Sep-20 02:18 224 0 gusting 2 19.4
2017-Sep-20 02:13 260 1 gusting 4 18.9
2017-Sep-20 02:09 249 1 gusting 4 19.4
2017-Sep-20 02:03 003 1 gusting 5 18.9
2017-Sep-20 01:48 282 1 gusting 4 18.3
2017-Sep-20 01:43 287 3 gusting 5 18.3
2017-Sep-20 01:38 353 2 gusting 5 18.3
2017-Sep-20 01:33 201 1 gusting 5 18.3
2017-Sep-20 01:18 230 0 gusting 4 17.8
2017-Sep-20 01:13 312 1 gusting 4 17.2
2017-Sep-20 01:08 305 2 gusting 4 17.2
2017-Sep-20 01:03 353 2 gusting 5 17.2
2017-Sep-20 00:48 300 1 gusting 5 16.7
2017-Sep-20 00:43 247 0 gusting 2 16.7
2017-Sep-20 00:38 006 1 gusting 1 15.6
2017-Sep-20 00:33 281 2 gusting 5 15.0
2017-Sep-20 00:18 004 1 gusting 1 15.6
2017-Sep-20 00:13 202 0 gusting 1 15.6
2017-Sep-20 00:08 243 1 gusting 4 15.6
2017-Sep-20 00:03 163 1 gusting 2 16.1
2017-Sep-19 23:48 143 1 gusting 2 15.6
2017-Sep-19 23:43 117 1 gusting 2 15.0
2017-Sep-19 23:38 240 0 gusting 1 15.0
2017-Sep-19 23:33 112 0 gusting 1 14.4
2017-Sep-19 23:18 156 0 gusting 2 13.3
2017-Sep-19 23:13 231 1 gusting 1 12.8
2017-Sep-19 23:08 122 1 gusting 2 12.2
2017-Sep-19 23:03 285 0 gusting 1 11.7
2017-Sep-19 22:48 227 1 gusting 2 8.9
2017-Sep-19 22:43 190 1 gusting 2 7.8
2017-Sep-19 22:38 238 0 gusting 2 7.2
2017-Sep-19 22:33 193 1 gusting 2 6.7
2017-Sep-19 22:18 178 0 gusting 0 5.0
2017-Sep-19 22:13 074 4.4
2017-Sep-19 22:08 104 3.9
2017-Sep-19 22:03 068 3.9
2017-Sep-19 21:48 025 2.8
2017-Sep-19 21:43 010 2.2
2017-Sep-19 21:38 352 2.2
2017-Sep-19 21:33 020 1.7
2017-Sep-19 21:18 045 0.6
2017-Sep-19 21:13 357 0.6
2017-Sep-19 21:08 338 0.6
2017-Sep-19 21:03 022 -0.0
2017-Sep-19 20:48 045 -0.0
2017-Sep-19 20:43 001 -0.6
2017-Sep-19 20:38 -0.6
2017-Sep-19 20:33 359 -0.6
2017-Sep-19 20:18 068 -0.6
2017-Sep-19 20:13 045 -0.6
2017-Sep-19 20:08 315 -0.6
2017-Sep-19 20:03 315 -0.6
2017-Sep-19 19:48 158 -0.6
2017-Sep-19 19:43 158 -0.6
2017-Sep-19 19:38 158 -0.6
2017-Sep-19 19:33 158 -0.6
2017-Sep-19 19:18 135 -0.0
2017-Sep-19 19:13 135 -0.0
2017-Sep-19 19:08 045 -0.0
2017-Sep-19 19:03 028 0 gusting 1 -0.0
2017-Sep-19 18:48 180 -0.0
2017-Sep-19 18:43 180 -0.0
2017-Sep-19 18:38 180 -0.0
2017-Sep-19 18:33 180 -0.0
2017-Sep-19 18:18 180 -0.0
2017-Sep-19 18:13 354 -0.0
2017-Sep-19 18:08 018 -0.0
2017-Sep-19 18:03 026 0.6
2017-Sep-19 17:48 074 0.6
2017-Sep-19 17:43 045 0.6
2017-Sep-19 17:38 068 0.6
2017-Sep-19 17:33 045 0.6
2017-Sep-19 17:18 045 0.6
2017-Sep-19 17:13 045 1.1
2017-Sep-19 17:08 045 1.1
2017-Sep-19 17:03 045 1.1
2017-Sep-19 16:48 068 1.7
2017-Sep-19 16:43 045 1.7
2017-Sep-19 16:38 078 1.7
2017-Sep-19 16:33 090 1.7
2017-Sep-19 16:18 244 1.7
2017-Sep-19 16:13 248 0 gusting 0 1.7
2017-Sep-19 16:08 259 1.7
2017-Sep-19 16:03 158 1.7
2017-Sep-19 15:48 045 1.7
2017-Sep-19 15:43 068 1.7
2017-Sep-19 15:38 1.7
2017-Sep-19 15:33 2.2
2017-Sep-19 15:18 068 2.8
2017-Sep-19 15:13 069 2.8
2017-Sep-19 15:08 002 2.8
2017-Sep-19 15:03 045 2.8
2017-Sep-19 14:48 251 3.3
2017-Sep-19 14:43 048 1 gusting 2 3.3
2017-Sep-19 14:38 022 0 gusting 1 2.8
2017-Sep-19 14:33 055 0 gusting 2 2.8
2017-Sep-19 14:18 068 2.2
2017-Sep-19 14:13 068 2.8
2017-Sep-19 14:08 2.8
2017-Sep-19 14:03 059 2.8
2017-Sep-19 13:48 068 2.8
2017-Sep-19 13:43 2.8
2017-Sep-19 13:38 2.8
2017-Sep-19 13:33 3.3
2017-Sep-19 13:13 202 3.3
2017-Sep-19 13:08 202 3.3
2017-Sep-19 13:03 202 3.3
2017-Sep-19 12:48 045 3.9
2017-Sep-19 12:43 248 3.9
2017-Sep-19 12:38 315 3.9
2017-Sep-19 12:33 045 3.9
2017-Sep-19 12:18 022 4.4
2017-Sep-19 12:13 045 4.4
2017-Sep-19 12:08 066 4.4
2017-Sep-19 12:03 5.0
2017-Sep-19 11:48 063 1 gusting 1 5.6
2017-Sep-19 11:43 5.6
2017-Sep-19 11:38 031 0 gusting 0 5.6
2017-Sep-19 11:33 358 0 gusting 0 5.6
2017-Sep-19 11:18 194 6.1
2017-Sep-19 11:13 338 6.1
2017-Sep-19 11:08 202 0 gusting 1 6.7
2017-Sep-19 11:03 224 1 gusting 2 6.1
2017-Sep-19 10:48 315 0 gusting 1 6.7
2017-Sep-19 10:43 286 0 gusting 2 6.7
2017-Sep-19 10:38 306 6.7
2017-Sep-19 10:33 348 6.7
2017-Sep-19 10:18 278 0 gusting 1 6.1
2017-Sep-19 10:13 352 0 gusting 1 6.1
2017-Sep-19 10:08 309 0 gusting 1 6.1
2017-Sep-19 10:03 331 0 gusting 1 6.1
2017-Sep-19 09:48 272 0 gusting 0 6.7
2017-Sep-19 09:43 292 0 gusting 1 6.7
2017-Sep-19 09:38 322 0 gusting 1 7.2
2017-Sep-19 09:33 288 1 gusting 2 7.2
2017-Sep-19 09:18 307 0 gusting 1 7.8
2017-Sep-19 09:13 293 1 gusting 2 7.8
2017-Sep-19 09:08 292 1 gusting 1 7.8
2017-Sep-19 09:03 323 1 gusting 4 7.8
2017-Sep-19 08:48 303 0 gusting 1 8.3
2017-Sep-19 08:43 291 1 gusting 2 8.3
2017-Sep-19 08:38 295 1 gusting 2 8.3
2017-Sep-19 08:33 315 0 gusting 4 8.9
2017-Sep-19 08:18 268 0 gusting 2 9.4
2017-Sep-19 08:13 318 0 gusting 2 9.4
2017-Sep-19 08:08 287 0 gusting 1 9.4
2017-Sep-19 08:03 285 1 gusting 4 9.4
2017-Sep-19 07:48 263 2 gusting 4 10.6
2017-Sep-19 07:43 236 1 gusting 4 10.6
2017-Sep-19 07:38 263 2 gusting 5 11.1
2017-Sep-19 07:33 289 2 gusting 6 11.1
2017-Sep-19 07:18 244 2 gusting 5 12.2
2017-Sep-19 07:13 283 2 gusting 5 12.2
2017-Sep-19 07:08 291 2 gusting 6 12.8
2017-Sep-19 07:03 312 4 gusting 7 12.8